Wind_Speed
8 6 2 2 2 2 2 2 3 1 2 2 9 3 5 1 3 0 5 13 23 27 24 23 22 21 19 17 17 18 17 16 16 15 15 14 14 13 14 13 14 13 14 13 12 12 13 13 13
10 5 1 2 3 4 3 2 4 2 4 9 7 7 3 2 2 7 14 15 24 27 26 24 25 23 22 20 18 17 16 15 15 15 14 13 13 12 13 13 13 12 14 13 12 13 12 12 15
10 3 1 2 2 4 3 2 0 4 10 3 3 1 2 3 2 16 5 20 24 25 24 24 26 25 23 22 20 18 16 14 14 14 15 13 12 12 11 13 12 11 13 12 12 13 13 13 13
6 3 3 1 4 1 2 1 3 9 3 1 5 6 4 5 13 11 21 23 21 20 21 22 24 23 22 22 21 20 17 15 14 13 12 12 11 10 10 12 11 12 12 12 13 12 13 13 13
4 2 1 3 3 5 3 4 7 5 3 2 3 5 3 5 8 17 22 25 25 22 20 20 22 21 20 20 20 20 18 17 14 14 13 12 10 10 10 11 11 12 12 12 11 12 13 13 14
3 2 3 9 9 1 0 7 8 6 2 3 1 7 5 8 15 20 22 22 21 23 21 19 21 20 19 18 18 18 16 15 14 13 12 11 10 10 9 9 10 9 12 11 12 12 12 14 13
1 0 2 3 9 7 1 6 8 7 4 5 4 6 4 10 11 17 21 20 21 21 20 17 18 18 19 18 17 17 16 15 13 13 12 11 10 9 10 9 9 10 10 11 13 12 12 12 12
3 1 2 1 7 6 3 6 6 9 6 3 9 5 6 15 19 18 17 20 21 20 21 21 18 18 18 17 18 18 17 15 14 13 12 11 10 9 8 9 9 9 10 11 13 12 12 11 11
1 3 2 3 4 7 4 4 4 3 7 7 11 4 2 23 24 22 18 17 18 19 20 20 19 18 17 17 17 17 17 16 14 13 13 11 10 9 9 10 10 10 10 11 12 12 11 11 10
4 3 4 3 7 8 14 11 10 8 12 9 7 5 13 23 25 25 24 22 22 22 22 21 21 20 19 17 16 16 15 14 14 14 12 11 10 9 9 9 10 10 10 12 12 12 12 11 10
6 5 6 8 12 13 12 15 5 11 11 13 16 13 17 19 22 23 25 28 30 26 22 23 22 21 20 17 17 14 14 14 15 14 13 12 11 10 9 9 9 9 10 10 12 11 11 12 12
6 12 13 6 7 5 10 12 4 15 21 10 13 20 22 22 20 23 25 26 25 25 25 23 22 22 21 17 19 18 18 16 15 15 15 13 11 11 11 11 10 10 11 11 11 12 12 12 12
12 14 11 13 12 9 10 12 10 15 13 2 11 19 22 22 24 25 23 24 25 25 24 23 23 23 22 21 22 24 20 19 18 15 15 14 13 14 10 13 11 11 10 12 12 10 11 12 11
8 11 17 11 12 8 8 4 5 4 9 10 15 20 24 26 27 28 25 25 26 26 25 23 24 24 24 26 22 20 17 16 18 15 16 19 17 15 13 11 11 12 12 11 11 12 11 12 12
9 13 16 15 9 11 6 8 6 7 4 12 17 21 21 24 28 30 31 28 29 28 25 25 25 24 25 25 22 21 20 17 19 19 22 20 20 17 13 12 12 13 14 15 13 11 11 12 12
4 4 12 12 4 1 4 17 9 3 7 10 18 17 18 25 26 29 29 30 27 26 27 25 24 24 24 24 24 21 19 18 18 19 22 22 20 19 17 13 13 12 13 15 14 15 12 13 13
6 13 13 13 1 3 3 9 15 7 9 13 16 17 16 19 22 30 29 28 27 27 26 26 26 26 25 24 23 22 20 18 17 18 21 23 22 20 20 17 14 16 14 14 14 17 18 14 14
12 13 11 12 8 5 12 15 17 14 13 16 14 15 19 19 27 28 28 27 26 27 27 27 28 29 26 21 21 18 19 18 17 17 19 22 23 22 21 20 19 19 14 14 15 16 16 17 16
16 12 12 5 9 11 17 15 14 20 17 17 13 16 20 24 17 25 28 27 27 27 28 29 29 30 26 23 22 20 22 20 18 18 17 18 21 21 21 19 20 21 20 19 16 18 17 16 14
15 16 13 9 11 6 12 20 19 16 11 13 11 15 20 17 18 21 29 29 30 31 32 29 31 30 31 27 25 17 18 16 16 18 20 19 21 21 21 22 20 20 18 20 19 18 16 16 17
18 19 12 11 8 9 11 11 8 13 13 11 11 11 13 19 22 22 24 31 32 33 33 34 35 31 34 33 22 15 12 16 16 18 19 25 23 22 22 22 24 21 19 19 20 21 20 19 17
18 15 16 9 8 11 2 13 11 13 10 10 14 8 13 16 19 20 23 28 34 32 31 33 31 33 31 33 26 25 24 21 19 17 17 21 22 23 21 24 22 23 17 19 19 19 23 22 20
16 7 10 10 9 4 13 6 9 8 12 12 10 11 12 15 18 21 25 32 38 32 40 32 35 34 32 29 30 28 23 19 17 15 17 15 13 18 19 20 20 20 18 17 17 17 19 21 20
14 8 2 2 4 7 14 8 7 7 7 6 9 10 13 15 13 17 23 28 31 36 31 31 33 34 32 31 30 28 26 18 14 14 12 10 7 10 16 17 19 17 16 15 15 16 17 17 20
10 8 5 6 5 9 4 6 7 16 15 16 14 10 10 12 12 12 17 20 27 34 31 31 32 30 31 29 28 27 27 22 20 16 16 13 11 14 19 20 21 21 19 14 13 15 16 16 17
12 12 6 5 7 11 3 7 3 9 14 12 12 13 15 15 14 15 16 19 27 33 31 31 31 28 30 30 27 24 24 22 17 14 20 22 16 19 18 20 21 19 17 15 14 15 16 15 16
3 4 10 3 3 5 5 6 10 7 11 6 9 14 16 16 12 12 13 19 27 31 31 31 29 28 27 27 25 24 25 24 18 17 16 15 12 13 14 13 14 15 14 15 14 15 18 17 14
4 7 4 4 6 13 13 16 11 16 15 16 15 14 13 12 5 9 13 15 23 27 25 25 26 27 27 26 24 24 25 23 19 17 17 13 8 11 11 10 9 10 13 15 15 14 16 19 18
4 4 2 4 1 12 14 13 4 9 10 12 11 11 11 8 3 8 11 15 19 21 23 23 24 24 24 24 23 23 24 21 18 15 15 10 9 9 8 8 8 8 8 12 14 14 14 17 18
1 4 2 6 6 8 8 17 1 6 6 8 10 10 8 5 1 5 10 13 16 19 23 25 26 26 26 24 22 23 21 18 16 14 15 9 8 8 8 9 8 9 10 11 11 12 12 13 13
Wind_Direction
159 166 186 273 249 244 27 43 299 31 82 83 140 168 194 185 177 84 151 158 154 155 159 160 162 160 157 152 145 141 140 138 141 144 145 148 149 149 150 149 144 142 135 131 129 125 130 131 135
155 156 232 279 298 26 38 265 297 336 95 120 123 128 162 121 96 117 138 165 159 157 161 162 164 163 162 159 152 147 145 144 145 147 147 153 148 150 162 153 154 144 135 135 134 130 133 138 137
153 154 292 324 293 7 348 265 9 103 136 133 125 69 97 90 83 145 141 154 156 159 164 168 166 163 165 164 160 154 152 150 149 152 154 150 146 147 148 157 155 144 142 135 137 139 139 143 140
151 190 207 258 349 317 244 250 118 147 214 169 131 101 100 352 147 156 149 153 156 162 166 172 169 168 167 166 165 161 159 156 152 150 152 154 150 152 161 153 151 150 147 136 147 149 146 141 141
166 217 251 335 18 314 296 156 149 183 337 156 170 135 83 112 135 147 155 160 161 165 170 172 173 174 173 168 168 166 164 161 157 155 154 159 159 155 160 153 153 152 139 143 151 141 152 154 150
144 250 31 16 15 114 76 164 167 207 294 160 244 149 125 150 149 157 161 166 167 166 170 175 179 179 180 172 171 170 167 164 161 157 160 160 163 158 160 151 154 156 148 151 157 159 154 150 156
296 348 21 345 352 2 18 188 205 203 225 222 150 174 126 178 164 161 164 167 168 170 169 179 183 183 183 174 175 174 172 171 169 164 166 168 164 167 166 168 165 162 159 161 164 166 159 158 167
276 282 261 84 360 330 24 183 239 201 211 139 163 209 181 178 159 158 163 167 170 173 176 177 183 186 183 181 179 180 178 176 175 172 174 169 173 177 176 179 175 183 167 168 172 172 173 178 180
236 253 286 350 321 310 305 260 179 195 183 178 187 239 308 158 155 154 160 171 174 179 183 183 183 184 184 186 187 185 180 183 176 173 174 176 177 177 182 190 190 185 183 173 175 177 180 190 196
224 260 224 235 287 287 301 284 288 190 198 209 190 126 136 157 164 166 171 179 185 187 189 188 185 187 188 187 187 188 188 186 183 183 182 183 183 185 180 193 197 192 188 185 185 181 186 194 203
186 230 242 252 269 295 296 299 253 210 221 208 211 173 162 172 182 178 184 185 188 192 190 192 188 188 188 188 187 192 194 196 190 192 188 190 191 198 202 204 204 205 198 195 186 193 193 200 206
252 243 248 265 275 279 295 303 262 209 234 190 200 175 166 178 193 195 189 190 187 191 195 192 191 191 189 192 195 194 197 197 199 201 198 196 199 208 214 216 208 209 208 196 197 195 199 206 210
241 266 264 249 265 264 273 269 280 242 246 163 154 161 176 188 190 200 202 197 191 193 196 193 190 193 188 197 203 202 201 202 202 207 207 201 205 215 216 227 214 210 207 209 208 210 206 210 214
248 268 269 276 283 275 262 271 190 288 200 192 157 178 186 188 196 190 200 202 199 198 197 193 196 195 193 205 208 207 209 213 211 211 215 214 215 218 226 232 221 217 216 215 213 213 215 217 219
267 276 276 264 268 269 244 251 235 263 199 197 188 202 192 194 193 202 195 201 200 202 197 195 198 199 200 205 209 210 211 215 215 217 221 217 220 224 229 234 229 226 219 223 221 220 221 225 226
297 257 264 275 214 225 271 271 254 235 200 231 223 213 199 197 195 205 201 200 203 201 197 198 197 203 203 207 210 211 215 214 219 222 224 220 222 225 230 234 226 217 214 218 225 222 222 225 226
223 252 245 268 114 279 216 290 300 317 287 277 242 215 208 197 203 207 204 201 202 203 201 198 199 203 204 209 212 212 214 214 218 224 226 219 224 228 227 229 227 227 222 221 225 226 229 225 227
237 234 245 258 275 267 274 280 291 293 279 284 249 212 209 202 206 203 207 200 200 202 204 203 201 204 206 204 211 212 214 216 216 218 225 223 226 229 223 225 226 229 226 225 225 227 231 227 231
261 249 255 237 269 287 282 280 286 295 299 284 247 214 210 217 201 200 205 207 201 198 204 203 200 202 196 200 204 209 213 214 217 219 221 225 228 230 229 223 227 228 231 233 233 235 232 229 228
234 244 252 264 250 240 288 293 290 290 275 286 260 216 216 211 201 197 199 202 203 200 202 200 205 199 202 202 204 205 211 219 219 222 225 229 230 231 229 231 229 229 230 230 229 228 228 229 218
237 243 241 249 276 263 283 276 275 285 288 285 262 240 219 207 204 202 194 198 201 201 198 202 204 200 204 205 201 197 199 222 227 224 223 229 234 236 235 237 235 234 229 229 227 223 225 224 214
246 228 248 246 257 274 240 291 292 289 291 276 282 241 224 214 213 205 196 199 205 200 200 203 201 202 205 204 199 200 208 215 222 222 224 232 235 231 239 236 238 234 226 227 229 229 225 216 209
245 228 227 228 238 265 267 263 287 282 282 273 253 254 257 223 213 211 207 201 204 192 202 199 196 201 203 201 201 202 210 215 228 235 236 229 236 237 237 231 231 228 221 230 231 225 219 214 208
236 219 134 119 209 246 265 240 274 292 243 245 239 243 251 255 222 225 218 207 201 197 199 188 192 194 197 200 204 200 205 206 215 224 212 211 224 244 239 231 224 216 219 227 226 223 217 211 213
206 213 232 221 192 250 171 198 263 273 266 253 258 251 265 274 260 238 212 199 195 193 193 185 187 190 193 196 199 201 209 207 224 220 204 184 187 245 239 231 224 218 220 225 217 217 219 209 206
199 202 212 273 253 261 153 245 244 268 295 282 283 284 280 260 247 244 226 202 188 189 187 186 186 185 189 193 195 198 206 212 221 218 198 208 219 229 232 224 225 223 214 214 213 214 215 212 217
136 165 220 85 339 267 272 268 273 249 286 310 318 301 286 289 268 235 204 194 188 184 186 187 183 183 188 190 188 195 203 209 211 202 210 211 227 234 237 235 227 220 211 210 206 208 202 206 213
230 160 234 186 194 255 274 275 274 294 315 334 343 320 322 316 257 178 174 179 182 180 180 181 183 183 186 187 187 192 198 209 203 208 209 202 208 206 208 222 229 225 229 212 206 211 209 213 215
191 202 204 206 281 276 263 272 238 289 320 320 335 322 316 313 263 155 153 158 165 167 167 172 177 177 181 183 185 187 194 199 203 211 205 211 201 205 207 217 215 226 217 197 203 210 208 209 213
348 23 325 237 201 221 263 259 163 325 0 1 352 345 328 315 129 118 128 143 158 163 162 169 174 178 180 177 180 188 190 194 199 203 197 204 197 199 194 199 205 194 191 192 197 196 199 207 209
Height
790 791 791 791 796 791 788 780 765 769 768 762 762 770 774 772 778 792 778 782 785 791 796 800 803 807 810 812 814 815 816 818 820 821 823 825 826 826 828 829 831 833 832 834 835 836 838 839 840
789 792 792 789 795 790 786 769 772 767 764 762 764 767 773 777 772 777 780 782 786 790 795 798 801 805 809 812 814 816 818 819 821 823 824 825 826 827 829 830 831 834 834 835 836 838 839 841 842
789 791 792 790 790 789 786 768 768 765 762 763 767 764 768 775 775 777 781 784 788 791 796 798 800 804 807 810 813 816 819 821 822 824 825 826 827 828 830 830 833 834 835 836 838 839 841 842 843
789 792 790 796 785 773 772 763 764 768 765 761 763 772 767 771 773 776 780 785 791 795 798 801 802 804 807 810 813 816 818 821 823 824 826 827 828 830 831 832 833 834 835 837 839 841 842 844 845
789 787 788 784 782 771 761 758 762 770 768 767 764 774 773 774 774 778 782 784 787 793 798 803 805 807 809 812 814 815 818 820 822 824 826 828 829 831 832 833 834 835 836 839 841 842 844 845 846
787 786 785 788 778 767 759 755 759 766 767 768 770 770 771 773 774 777 781 786 789 793 798 803 805 808 810 813 815 817 819 821 822 824 826 828 829 831 832 833 835 836 838 840 841 844 845 846 847
782 783 788 784 779 768 761 753 759 759 766 768 764 775 770 772 776 779 781 786 790 793 798 803 807 809 811 813 816 819 820 822 824 825 827 828 830 831 833 835 836 837 839 840 842 845 846 847 849
778 781 783 776 780 776 754 755 749 756 761 756 761 772 772 765 772 778 783 785 789 793 796 800 805 809 811 813 815 817 819 822 823 825 826 828 830 832 833 835 836 838 840 841 843 845 847 848 849
775 783 784 776 775 767 751 757 749 748 755 755 756 759 761 765 770 775 782 787 789 792 795 799 803 807 810 814 815 817 819 821 823 825 826 828 830 832 834 835 836 839 840 842 844 845 847 848 850
779 784 774 758 755 758 749 751 747 754 755 756 755 758 764 769 769 772 775 781 786 789 793 797 800 804 808 812 815 818 819 821 822 824 825 827 829 830 833 834 836 837 839 841 843 844 846 849 851
771 776 760 755 749 745 747 745 739 747 755 743 748 753 761 769 771 769 773 775 778 785 790 794 798 802 806 810 813 816 818 820 821 822 824 825 827 829 832 833 835 836 838 841 842 845 847 849 850
779 761 757 750 746 748 749 737 743 738 727 731 733 742 754 761 768 769 769 773 778 783 786 791 796 800 804 808 809 811 815 817 819 821 822 824 826 828 829 831 833 835 836 839 841 843 845 847 848
773 759 752 748 747 746 743 744 740 735 726 731 735 744 750 756 759 766 770 772 776 779 783 788 792 796 801 803 804 806 810 814 817 820 821 822 823 825 827 829 831 832 834 836 838 841 843 845 846
754 756 752 747 746 745 746 740 739 727 722 731 738 739 740 745 753 757 764 768 772 775 779 785 788 791 795 796 802 805 809 814 816 818 819 819 821 823 825 827 829 830 832 834 836 838 840 842 844
757 766 752 746 744 745 738 745 742 723 725 728 732 730 736 741 748 750 754 762 766 771 776 779 784 788 791 794 799 803 806 810 812 813 814 817 819 820 822 824 826 827 829 830 833 835 838 839 841
765 765 772 742 745 740 745 756 729 721 727 731 727 729 732 737 739 746 751 756 763 768 771 776 780 784 788 792 795 800 803 806 809 810 812 814 815 818 819 821 822 824 826 828 830 833 835 836 838
770 778 770 760 745 746 748 754 731 726 725 726 724 725 727 735 738 740 746 752 758 764 768 771 775 780 784 788 792 796 799 802 806 807 808 810 812 814 816 818 820 821 823 825 827 829 831 833 835
772 773 768 771 748 748 750 749 731 725 728 722 719 719 719 724 724 735 742 747 754 759 764 767 771 775 781 786 789 793 796 799 802 803 805 807 808 810 812 814 816 819 821 822 823 824 826 828 831
753 765 768 763 749 754 747 745 734 718 717 715 714 713 714 709 724 731 736 745 749 753 758 762 766 770 776 782 785 789 791 794 798 801 802 805 806 808 808 810 812 814 815 817 819 820 823 824 827
756 760 762 757 748 753 745 742 726 717 716 710 708 707 706 711 715 722 728 735 742 745 749 757 760 764 770 775 780 785 789 792 794 796 798 801 802 803 805 806 806 808 810 811 814 816 818 820 822
753 757 758 759 747 742 748 745 731 713 707 703 697 695 699 702 705 712 718 722 731 735 741 747 753 759 763 769 777 782 786 787 787 789 792 794 797 799 800 801 802 803 804 806 807 809 812 814 817
754 742 744 752 757 765 746 763 735 717 715 704 695 693 693 696 698 703 709 715 719 726 735 741 748 754 759 764 770 774 777 778 780 784 787 788 791 794 795 796 797 798 800 801 803 804 805 808 811
741 734 741 743 751 758 745 760 733 721 717 700 689 685 682 682 688 692 697 698 706 721 722 733 738 747 753 759 763 768 772 775 778 781 783 785 788 791 792 792 792 793 795 797 799 799 800 802 806
722 737 748 755 750 768 743 753 738 723 710 694 685 682 680 676 682 684 689 698 703 711 716 723 732 738 747 753 758 761 765 771 775 776 777 780 782 786 789 789 789 790 792 793 795 798 798 799 802
733 744 765 770 767 764 742 753 734 702 693 693 684 680 679 678 676 679 683 687 695 701 709 716 725 733 740 748 754 757 761 766 768 771 772 774 776 780 783 783 784 783 785 788 790 794 796 797 799
732 733 758 780 769 755 754 747 721 693 687 685 685 680 677 676 672 671 672 681 686 695 702 709 718 727 736 742 748 754 758 762 765 768 769 770 774 774 776 776 777 778 779 781 786 789 792 794 797
739 743 726 762 761 767 740 723 705 692 687 685 687 683 678 671 666 663 667 675 681 688 696 704 714 722 731 738 745 750 754 757 760 764 766 769 770 772 775 777 775 775 777 779 781 784 786 789 793
720 718 742 745 779 785 746 735 729 702 692 688 688 689 680 674 667 664 667 674 681 687 696 704 712 719 727 734 740 745 749 753 756 760 763 766 768 770 771 774 775 774 774 776 779 782 782 784 786
727 730 730 727 749 757 757 733 700 704 699 699 691 691 685 678 676 669 671 677 683 689 694 701 710 718 725 731 736 741 745 749 753 757 763 765 765 767 768 771 772 773 774 774 776 778 780 782 784
716 727 724 739 759 737 742 721 694 696 695 695 692 689 687 682 680 679 677 682 687 689 692 698 706 712 718 724 732 739 743 747 751 755 760 762 763 763 765 767 771 771 773 774 776 777 778 780 782